Tracking 30109 objects as of 12-Dec-2024
HD Live streaming from Space Station
objects crossing your sky now

STARLINK-6369

Track STARLINK-6369 now!
10-day predictions
STARLINK-6369 is classified as:


NORAD ID: 57374
Int'l Code: 2023-099AY
Perigee: 565.3 km
Apogee: 567.1 km
Inclination: 43.0 °
Period: 95.8 minutes
Semi major axis: 6937 km
RCS: Unknown
Launch date: July 16, 2023
Source: United States (US)
Launch site: AIR FORCE EASTERN TEST RANGE (AFETR)
Your satellite tracking list
Your tracking list is empty




NASA's NSSDC Master Catalog

Two Line Element Set (TLE):
1 57374U 23099AY  24346.58015188  .00000555  00000-0  56139-4 0  9997
2 57374  43.0030 165.2929 0001267 264.0974  95.9724 15.02536848 78991
Source of the keplerian elements: AFSPC